TIMESTAMP,CO2_1_1_1,H2O_1_1_1,TAU_1_1_1,TAU_SSITC_TEST_1_1_1,H_1_1_1,H_SSITC_TEST_1_1_1,LE_1_1_1,LE_SSITC_TEST_1_1_1,FC_1_1_1,FC_SSITC_TEST_1_1_1,WD_0_0_1,WS_0_0_1,WS_MAX_0_0_1,U_SIGMA_0_0_1,V_SIGMA_0_0_1,W_SIGMA_0_0_1,USTAR_0_0_1,MO_LENGTH_0_0_1,ZL_0_0_1,FETCH_MAX_0_0_1,FETCH_70_0_0_1,FETCH_80_0_0_1,FETCH_90_0_0_1,PA_0_0_1,RH_0_0_1,TA_0_0_1,VPD_0_0_1,T_SONIC_0_0_1,T_SONIC_SIGMA_0_0_1
[yyyymmddHHMMSS],[mmolCO2 mol-1],[mmolH2O mol-1],[kg m-1 s-2],[#],[W m-2],[#],[W m-2],[#],[umolCO2 m-2 s-1],[#],[Decimal degrees],[m s-1],[m s-1],[m s-1],[m s-1],[m s-1],[m s-1],[m],[#],[m],[m],[m],[m],[kPa],[%],[deg C],[hPa],[deg C],[deg C]
20220729003000,405.01464163045125,13.364302164911201,0.40001521162710502,0,-0.51605107071224432,1,42.434283830152339,0,-3.1009109080871911,0,310.07460410957162,3.5464758848339892,8.7862551347634934,1.3774571855653734,0.92471585661928624,0.69284096658792849,0.59923693423932001,34658.083615859432,5.4821265395371308E-004,111.48768855562447,203.83505185422797,243.93849687085321,305.38205128723422,93.386286619954305,62.899999999999999,17.426896551724155,7.3632430554463761,17.620738606135546,6.5592071759086337E-002
20220729010000,406.61726963160402,13.018316328213162,0.33496179009160371,0,-25.205489720276471,0,32.358348902031160,0,-1.7117080513289684,0,305.39393289638008,3.4483435417539758,7.9912507197170486,1.3087014764116451,1.0095990940067434,0.73025250586992296,0.54792042476307989,542.46214774917814,3.5025485333559453E-002,99.506269995895352,181.92919744958584,217.72278398177821,272.56308961977192,93.398256828123266,62.770000000000003,17.047000000000025,7.2135820778860698,17.283747988749781,0.19206564890526218
20220729013000,407.82443110930910,13.074526061482931,0.23631738317773887,0,-12.572800339580454,2,-1.1892625670243995,2,-1.1880028140061993,2,301.17369565894830,3.1810535512044935,6.8730454497534730,0.97533911849040167,0.79308885551708208,0.55215661707956809,0.45950502224352002,641.59943749675142,2.9613492296891551E-002,108.10288512260419,197.64655165098065,236.53244269257226,296.11055029038579,93.433261091796879,66.361000000000004,16.245333333333349,6.1940412982928272,16.642988849216067,0.25462663932636592
20220729020000,409.80709654454404,13.098528329137308,0.19581580923097114,0,-42.855359263113201,0,7.6496121818300642,0,2.8463543330985828,1,302.61155548546185,2.8582436028179488,6.8946077987242624,1.0269772579797534,0.64230975611679331,0.47569460146573350,0.41760815249980288,141.33075575218220,0.13443641406203005,112.82555960686061,206.28110682797450,246.86579994327042,309.04668736748141,93.467968904748091,70.103666666666669,15.422000000000025,5.2225064113643160,15.936698136815494,0.25114395784347948
20220729023000,412.02543995591958,13.209924890231296,9.8079421491950522E-002,0,-27.088816046920414,0,-2.1890624541482100,2,2.1922000538577660,0,292.52458669578715,2.5900600046556645,5.6290968479340897,0.64173845466288526,0.54316626319938444,0.37592276936390112,0.29521226999171218,78.999401405322686,0.24050815147973831,103.20090792338928,188.68417392537475,225.80676557823264,282.68327529837967,93.489851616762522,73.536666666666662,14.814000000000021,4.4455132126849550,15.389521015716468,0.20037671822207564
20220729030000,412.46130299731357,13.477409438102725,0.17245595155748475,0,-39.750191512989446,0,-3.7518258195871286,1,4.0709658385922616,0,293.78240490887640,2.8543441192870223,6.0939046192791926,0.85023418744247059,0.63616498906810148,0.51061111037662199,0.39140386888331435,125.48723765837585,0.15140981947283955,101.22383400858466,185.06945225372780,221.48086695006810,277.26776354572291,93.499943235677094,75.407333333333327,14.737000000000023,4.1107994445430105,15.341938947889560,0.21545168553654115
20220729033000,414.17305672664543,13.606564781448832,0.14364319710097109,0,-33.505079825148250,0,-2.4253773615627909,0,3.4465493466234465,0,299.96402281800067,2.8166920317230932,5.9031368242771212,0.82235460429010576,0.63575700119170553,0.49564361946962709,0.35697231309579319,112.95481076810438,0.16820886043540809,96.300138268265130,176.06736610820926,210.70766899876503,263.78099810486623,93.512513517144100,77.956999999999994,14.372000000000014,3.5987384681957453,14.955445212470181,0.23345062457628371
20220729040000,415.40786904437090,13.829829781132382,0.13650098433336089,0,-29.970710927101425,0,-16.266392278319728,1,3.2250536607848059,0,290.14118175062782,2.7962411045943445,5.8651828129512769,0.77939026071833706,0.73971792071716258,0.46636580642226305,0.34779110323568768,116.79207130220392,0.16268227618668374,99.021229340300792,181.04238843537621,216.66150008595184,271.23448811872572,93.521260677300347,80.887666666666661,14.055000000000007,3.0568566289553862,14.688225209554048,0.18958924521291179
20220729043000,417.74695846211080,14.081193607333057,0.15990628845265370,0,-36.894649551524466,0,-0.61959307489727133,2,6.7750823759829055,0,276.40349065687309,2.7244004721730550,6.4995898430504919,0.85771816920739308,0.69668166010329635,0.49796472703868172,0.37634338529643779,120.21217735721432,0.15805387122754538,100.08372589558435,182.98497100433050,218.98627527847918,274.14483079191001,93.517162131510418,83.273333333333326,13.884000000000015,2.6457616754815807,14.513043676588268,0.19840115470658928
20220729050000,417.34027727280159,13.939484972139553,0.24114225468368422,0,-35.955920172435675,0,-4.0134934291386983,1,3.9943469334565007,0,286.11280383324441,3.3414612053960107,7.6441773968101439,1.0328179511196369,0.77287884515287908,0.63207089877108014,0.46187412050221544,228.02272226697247,8.3325029238772580E-002,97.422925431469764,178.12017913714647,213.16436189863958,266.85648609372458,93.526740006076395,84.093333333333334,13.579333333333352,2.4667016065843064,14.166891407436879,0.16135895126751318
20220729053000,418.23838064415042,13.917057057972185,0.30469053029011695,0,-39.499554272310618,0,-2.6762632015211834,1,4.2481445895795282,0,285.68815122431511,3.1472785228934659,7.5745113728404769,1.1813077822564433,0.88456728960407038,0.62890850319631897,0.51887921699657613,294.36034559930863,6.4546737643335017E-002,107.35887384109557,196.28626173815519,234.90452308981162,294.07258812369696,93.556469358506945,85.290000000000006,13.342666666666673,2.2462198943341334,13.923453532748795,0.19883567447965386
20220729060000,419.10047172984486,13.990034810713531,0.24486215673025766,0,-32.160266308307328,0,-3.2613054075123782,1,3.4658986884307770,0,282.65233154167595,3.2742098904434584,7.1459893112678587,1.0025075921314168,0.78646512512124944,0.61080218653913021,0.46486607026087312,260.00748355709402,7.3074819770823501E-002,100.64604478236198,184.01306927177055,220.21664632464353,275.68510934056815,93.570416522135417,87.566666666666663,13.021666666666647,1.8591849542947467,13.596193091498435,0.14807828792163857
20220729063000,419.59830995643290,14.118301735797310,0.23802928229450873,0,-35.625419141093964,0,0.42293512836014857,2,4.7379123522170250,0,289.04080713710277,3.3197943101561744,8.3196373993950790,1.0645477857667622,0.79361938909354912,0.62369418461024528,0.45825722671208058,224.83609001615233,8.4506006124884278E-002,97.850940009953703,178.90272629486344,214.10087098109395,268.02888433474698,93.560598793836803,89.173333333333332,12.881666666666661,1.6041748236682178,13.476286515129971,0.15229503069219399
20220729070000,419.98427148754735,14.243469563426544,0.20142553957846429,0,-25.258387713497662,0,-4.1361937717350461,0,3.8869512200787937,0,288.41913748390363,3.3433322953390925,7.6632262325434484,1.0208127808287806,0.82539927272554192,0.61457967784584600,0.42152969654964983,246.81490849441298,7.6980763098555255E-002,92.609360261500385,169.31944679857187,202.63213302776856,253.67138534713746,93.556191396048646,90.299999999999997,12.824000000000012,1.4318212011972695,13.426101336272836,0.14596340709577868
20220729073000,421.11909095310250,14.251217079799446,0.22546261326106143,0,-28.806663810186311,0,-4.8702361094015956,0,3.9089042693141050,0,288.44435697001177,3.0138888878870316,6.2346277019954792,1.0656346416861444,0.85546966497890919,0.59680628952134318,0.44578632032141990,255.99471943421472,7.4220280957328896E-002,99.149282687747487,181.27651079502922,216.94168475477150,271.58524607616567,93.571915184895829,91.506666666666661,12.632333333333349,1.2380534271038892,13.211518621656637,0.17122392668988934
20220729080000,421.59963124324651,14.240950356074103,0.26342183663382057,0,-31.701425683790131,0,-3.8737080503468686,0,3.1168365183164655,0,300.72364835373548,3.2918019538132142,7.5684819778806256,1.0918855775149643,0.92160602978179562,0.65693528491992614,0.48166899543017694,293.45924460108495,6.4744935964882386E-002,97.686777261853024,178.60258443431226,213.74167783131497,267.57921713463344,93.583649203124992,92.553333333333327,12.449999999999989,1.0725690906793215,13.031978350321481,0.14303666476446236
20220729083000,422.68542808503804,14.192709710326829,0.29436795490982620,0,-27.899001882529546,0,-2.9015454714150812,1,3.1144476287198311,0,298.30249294598042,3.4881626385862758,7.2214944992359200,1.0903611611032620,0.91839932171397987,0.68938592921371589,0.50900671898448124,393.52349041471376,4.8281742927155112E-002,98.234441410257389,179.60388916611686,214.93998385848820,269.07935408448827,93.587636437902830,93.296666666666667,12.277333333333331,0.95460777460378721,12.801090259384637,0.16952517898253583
20220729090000,425.27418671860886,14.121011836417891,0.24497913699605414,0,-20.670945899666673,0,-0.91042282310386302,1,2.9971975533343169,0,301.01401250578618,3.4932081091452143,7.3359976289757451,1.0555397995875537,0.74870615362932702,0.59453825283754291,0.46402581997442388,402.39399711958310,4.7217404176021036E-002,102.69393024587214,187.75725703863634,224.69748280268294,281.29458489567412,93.589107895123036,95.196666666666673,11.894666666666637,0.66700423016634203,12.387373731782191,0.13611919767322442
20220729093000,426.14425811897229,14.171728583290241,0.35706694770615272,0,-34.894094207527473,0,-2.6388726311761195,0,6.0543832367863288,0,296.88488969814591,3.5997226099921451,7.4150018373538567,1.1077534758962333,0.85502499802122789,0.68106496195982791,0.56004706241361024,419.08204792915427,4.5337184195520457E-002,107.07391644232051,195.76526873069338,234.28102752335064,293.29204566116323,93.585931975477436,96.696666666666673,11.711666666666645,0.45320090819050396,12.260912869771346,0.11819731175847978
20220729100000,426.63070288444771,14.192647853617277,0.35654298952493435,0,-31.436788629873313,0,-3.9095170591405877,1,5.0156647637919463,0,300.92649297934088,3.5368729193274464,7.2612132910303426,1.1289979961638454,0.86876516328764675,0.70918304720168801,0.55950906732794803,463.88976886830437,4.0958006136569892E-002,103.58429790408262,189.38513308604502,226.64563466608729,283.73343985254644,93.601975089626734,97.386666666666670,11.629000000000019,0.35658266479316125,12.184009948730477,0.10200422267222342
20220729103000,426.82796226300883,14.113493001608308,0.32845045317062377,0,-26.362514428600360,0,1.5742456573392809,2,4.8203250489111253,0,300.10726294122458,3.6559702544758466,7.9646637769258009,1.1710940821792535,0.81771169439964764,0.65322915540397886,0.53686315242626004,488.72720223484060,3.8876493702657090E-002,107.02699437852849,195.67948023305686,234.17836060236777,293.16351885899269,93.613395642608083,97.609999999999999,11.511666666666656,0.32358812712719554,12.087678772026948,0.11303690246470398
20220729110000,427.80291271768328,14.013034903511913,0.23570125593364863,0,-22.451521467181138,0,-2.8280260050998853,1,3.3947135246981848,0,304.57581824009822,3.4102070710584793,7.5159695499901895,0.97977948266921278,0.82993548790112515,0.59786670616889470,0.45461500557430196,348.51170513178556,5.4517537632818892E-002,100.57416083337050,183.88164248680445,220.05936202990836,275.48820806759312,93.636914446180555,97.810000000000002,11.376666666666665,0.29387093395224156,11.921773951212572,0.10788128148817765
20220729113000,425.84203424320464,14.165381910165493,0.36441619146448306,0,-17.732561355449288,0,-1.8105206382820329,1,2.9185616072016636,0,304.85009565594925,3.5793079367598173,9.2386512547695254,1.3024747113808446,0.88127366014961306,0.65360560116011324,0.56547423664655738,849.22848012704515,2.2373248712946589E-002,111.51480928265264,203.88463719294771,243.99783785702851,305.45633916026816,93.640753764322923,97.620000000000005,11.569999999999993,0.32348028856975136,12.087184796651172,0.14371611379621840
20220729120000,422.05764364632194,14.332567180123482,0.29830650514768103,0,-13.154876179836821,1,-5.4070002896880567,1,2.4767635801314882,2,299.76834750977434,3.5649099357507534,7.5089460721898007,1.0679574524693078,0.94013657747838186,0.67582085327678088,0.51204887384832576,850.23442538495249,2.2346778056413739E-002,100.28564253844941,183.35413902549814,219.42807511298861,274.69791175884029,93.676023257812503,95.163333333333327,12.139666666666642,0.68256721264605857,12.536365648905473,0.14705124435151293
20220729123000,419.77375552086818,14.439159978127250,0.29447330972550817,0,26.840630478373214,1,6.4763259360666821,1,-5.7145833784385411,1,302.33317014637157,3.0649733234246099,7.3457918971614236,1.1802432008196504,0.92487041775306622,0.66870762950129847,0.50910015831908539,-409.67064147280786,-4.6378720065692422E-002,100.67194582464151,184.06042463777126,220.27331860301715,275.75605630811475,93.710744924479172,92.873333333333335,12.628666666666675,1.0385877853221996,12.965079008314376,0.15246665807955018
20220729130000,416.38539940201525,14.572901525921228,0.50972486602861811,0,34.887496157499037,1,50.018024391844577,0,-3.2171113261098645,2,304.83015802444919,2.7995713442236028,7.9268122848125042,1.2469938140635926,0.96880157770269082,0.69580168876118043,0.67033516681424044,-719.61664330226665,-2.6402946870170245E-002,121.53465151037213,222.20410444999263,265.92156130648812,332.90223935532657,93.729853267578136,90.753333333333330,13.125333333333344,1.3920763753670395,13.479593674553826,0.29954578413781163
20220729133000,413.76275333918414,14.449972892246604,0.43863340181934418,0,69.885067067287210,0,58.776034250663265,0,-7.3643190474140257,0,309.89185027400225,3.6460328525795083,8.0708856382795453,1.5105605287904731,1.1090484281030311,0.68033004618276838,0.62245797550410831,-287.68214693957145,-6.6045113338197556E-002,116.61843453328419,213.21569186889062,255.16472711951457,319.43595940561551,93.752969627387159,86.230000000000004,13.783666666666647,2.1639344387401800,14.049039908515113,0.24663982080203900
20220729140000,412.06404926482082,14.199552427412202,0.58953806007481824,0,83.311588019551536,0,57.511401513878717,0,-11.069218545009941,0,311.20507213792519,3.7232081540871276,8.3953793920786310,1.4667853621173634,1.1558112020246072,0.77932053616007535,0.72152465962786172,-375.91410512714242,-5.0543461234512026E-002,117.72886204314192,215.24590750960044,257.59437671713442,322.47759238912596,93.780798336371532,84.606666666666669,13.811666666666667,2.4234448953270933,14.048004471672925,0.22919285004133511
20220729143000,409.84127436137845,14.172265785430559,0.48832130596083423,0,104.32202482707957,0,46.051142305713242,0,-8.3124852986607145,0,317.38893797076605,3.9073204709721372,7.8455565880923981,1.3914838032400170,1.1826966387113982,0.72589888484393184,0.65738988588294478,-227.07094223252943,-8.3674290568377815E-002,115.66778282020489,211.47759734256857,253.08467188704319,316.83197708289441,93.788312717038011,80.944000000000003,14.466000000000008,3.1300521443840879,14.643379861522476,0.37538883883284907
20220729150000,407.52373711229831,14.308006627633212,0.43331737159971673,0,172.53693196983792,0,107.84481052820503,0,-17.204734711125965,0,303.06140950530113,3.0137929116686735,8.0567421266206445,1.3734144438541041,1.1448759442103436,0.77432471221130528,0.62013193617310569,-115.26219848465493,-0.16484155473166257,104.83436817668830,191.67066023383296,229.38082693021090,287.15757599750788,93.797734523003470,77.499333333333325,15.290333333333308,3.8974933269317900,15.471607104831264,0.49470242516397234
20220729153000,406.29428258189881,14.096084174030977,0.65235791329479942,0,163.69894111618189,0,151.93813951888242,0,-16.529951353709990,0,316.41623467010550,3.4457301996679566,10.578862181906464,1.6208883057283021,1.4408357439210637,0.85528062162356977,0.76150037638842594,-224.98131205342617,-8.4451458774887411E-002,114.10484672358736,208.62005168505027,249.66491956233824,312.55085297493707,93.820876276655738,73.703000000000003,15.845000000000027,4.7199292555584655,16.096115684032384,0.46722445283094566
20220729160000,405.65185669953451,13.928289339734617,0.69637118188063929,0,172.65414705392854,0,166.14365457051230,0,-18.860981010248839,0,313.27151129346174,3.8883493910541165,9.1900610300467509,1.5494024651458043,1.4760417085342648,0.85457709252057934,0.78756906371608715,-235.99376389809476,-8.0510602001349713E-002,117.29643718246064,214.45529694943934,256.64821780137618,321.29311370189799,93.831962275607651,69.918999999999997,16.485333333333358,5.6242176550424166,16.578201032002767,0.48728762073197501
20220729163000,405.06960514717673,13.831676597648876,0.73269250947618259,0,144.53683664510254,0,132.20276166087584,0,-17.884552342296512,0,317.16128985816442,3.6076446663309283,9.8008238866373496,1.7424930217925947,1.2416290338336822,0.79322225928414214,0.80831388949368921,-304.81379420210129,-6.2333137021359314E-002,127.11681966912826,232.41008818541982,278.13551719317701,348.19266276473030,93.851641954644109,67.678666666666672,16.891666666666652,6.2011274085118293,17.030692480299194,0.39108723317979915
20220729170000,403.89129164995092,13.903626156729155,0.53272828540595629,0,187.20402441259262,0,183.71958447464081,0,-22.985884275431861,0,326.97374578972745,2.9549077081614059,9.6826600609610782,1.5731648893354770,1.0519693338358043,0.73348838576368669,0.68989363127364445,-146.33924693794381,-0.12983529980892333,119.22463876081397,217.98066440302111,260.86718225190242,326.57475655342267,93.865532279730914,65.574666666666673,17.475000000000023,6.8531899743597684,17.709811258951845,0.55496352610843558
20220729173000,404.06877779797770,13.737094640338309,0.57033349232803665,0,169.66528995529978,0,199.15090285163322,0,-20.108757144252213,0,333.77389917711128,2.8379147502350208,7.9541804954088349,1.3935909316240187,1.3319936005536257,0.76956258108012388,0.71431441419461927,-179.22915194850589,-0.10600954026418016,117.96991781094444,215.68663433393738,258.12181416266418,323.13788148292508,93.869249298828137,63.075000000000003,17.901000000000010,7.5508867914710462,17.982839944627585,0.40545884292117940
20220729180000,402.84299303840538,13.768074118697598,0.42503848845894154,0,79.069698922531771,0,163.13939231498347,0,-17.370486292551018,0,346.51953482233989,2.8295690634331065,7.0818879150606833,1.1929104751770268,1.0758302096075441,0.71947479865814590,0.61671955778376097,-247.53905959682180,-7.6755563469240645E-002,110.69107564780329,202.37858939207493,242.19548328935929,303.20000511671969,93.885562669921867,62.783000000000001,18.013333333333321,7.6645698491061331,18.234837472703703,0.34281538951923540
20220729183000,402.84274934172754,13.852383652200498,0.52258047988849932,0,184.78335136329017,0,202.53571299462541,0,-16.366557531975364,0,327.45696642014752,3.2898890966240053,8.5463193874509216,1.5156534611647829,1.3193490203185045,0.78833898128986779,0.68458269326631094,-144.88505653491038,-0.13113843797563696,111.84722949324009,204.49240735788999,244.72518351779840,306.36688961757613,93.887309901404905,60.703333333333333,18.648000000000025,8.4215311506359782,18.610604950824609,0.52741771762339795
20220729190000,402.39144394346675,13.742747625682831,0.78298686585218602,0,290.92536481816063,0,289.69218602485785,0,-18.847234524875731,0,313.32658298657725,2.8705057072718749,9.1205269873518979,1.6135338727854489,1.4776159725206990,0.85423796112309613,0.83879375147558521,-169.26658437268753,-0.11224897146956193,123.40022611912059,225.61496982928915,270.00349601833278,338.01233723456227,93.881616783637142,58.110333333333330,19.218999999999994,9.3030241518827435,19.247624667697494,0.58881764584913099
20220729193000,402.72703247445918,13.544414856521959,0.52995516905887141,0,223.03828510449699,0,206.83540251139647,0,-16.594238292487979,0,323.96373793010690,3.0526797060304571,7.6630258024999769,1.5621640009734650,1.0374180408624485,0.73601551590738246,0.68967614084735895,-122.73266206557274,-0.15480801671073358,118.86705024019643,217.32687854032301,260.08476755349210,325.59526619571858,93.891957908544299,58.306333333333335,18.933666666666682,9.0961891144665152,19.157191863065577,0.53328913598123040
20220729200000,401.86535178096028,13.639577981950497,0.37453381215896520,0,171.16444079108695,0,159.56560989842401,0,-13.549949327878208,0,315.30269914497194,2.8482470695768818,7.3376569501491042,1.2581225229170818,1.1767004950373032,0.69868108587796862,0.58006228639078616,-95.145356091572722,-0.19969445467956876,107.89750807514261,197.27105690657112,236.08307138620995,295.54799073915922,93.881064268208618,57.875333333333330,19.163000000000011,9.3226287234515564,19.390655740381249,0.49786196755742396
20220729203000,402.19225556869287,13.595303887289859,0.32451089877450140,0,126.88821741960166,0,177.27692385907397,0,-11.098541472328259,0,311.08802052380486,3.1239263828135830,8.0057835259029986,1.1578139333669832,1.3584135203642271,0.70512845813883740,0.54006741784110512,-103.58155439116692,-0.18343034251299337,101.15763969860031,184.94842794348403,221.33603176074647,277.08644707546102,93.876383047309034,57.216999999999999,19.293666666666695,9.5457025781091005,19.529733985900918,0.46744273302906592
20220729210000,401.81556862886288,13.630975877653471,0.88073298084467955,0,149.80283474252349,0,324.93103026295557,1,-19.644546638671301,0,302.13588547534198,3.0660564542620099,7.8638163644286951,1.4361865620278382,1.7068932600194080,0.83821856608444978,0.89009232936202953,-392.80435001655724,-4.8370136428476734E-002,131.37633001552200,240.19783159977538,287.45545704273917,359.86012151208718,93.884294196397576,56.442333333333337,19.556333333333328,9.8786141365880820,19.797618265787776,0.43970559713806856
20220729213000,402.23774870050062,13.812154305830362,0.54315804909921883,0,142.88596320702248,0,180.41404844781471,0,-12.139949592467886,0,313.24131548569392,3.6022821412800452,10.209343687869190,1.5937410565419674,1.2941362620749062,0.79577397187415233,0.69892959225686913,-199.41389379556838,-9.5279218706185456E-002,112.86774767099992,206.35824006441408,246.95810872718513,309.16224701118387,93.896566091093305,57.340000000000003,19.516999999999996,9.6514101776393577,19.728753607846897,0.47163160031339252
20220729220000,402.83282580498025,13.757720599453782,0.41238923751708234,0,109.29090878182654,0,131.86974040540460,0,-9.9301483336740670,0,320.93115538851612,3.4317992018564842,10.149031011986965,1.3384595082330089,1.3705665312128277,0.79073871244797955,0.60886142135662513,-172.35801914676131,-0.11023566001777771,101.58819983201319,185.73562918747425,222.27811059579963,278.26581798580628,93.902814891722187,57.533666666666669,19.400333333333322,9.5381530575592723,19.655326719496031,0.36616247096156784
20220729223000,402.47306642707292,14.012225226611415,0.51355601131750628,0,108.69513225004940,0,126.79501309252899,0,-11.882619454751673,0,320.07589443937621,3.1214421348095729,8.8316442356989455,1.4132581181624637,1.1603948040333329,0.75495829124702174,0.67925344164740253,-240.67847566649957,-7.8943494832199659E-002,115.06467380238978,210.37492170624699,251.76505077765341,315.17996804587580,93.925237259331595,59.085666666666668,19.271000000000015,9.1158932004969593,19.612173162672264,0.25523051166572919